[[{"header":{"parameterUnit":"m.s-1","parameterCategory":2,"la1":30.2991,"la2":30.254,"lo1":-89.0895,"lo2":-89.0444,"dy":0.0017,"dx":0.0017,"nx":28,"ny":28,"refTime":"2024-03-06T03:00:00:Z","depth":"0","parameterNumber":2,"parameterNumberName":"U-component_of_CURRENTS"},"data":[0,0,0,0,0,0,0,0,0,0,0,0,0,0,0,0,0,0,0,0,0,0,0,0,0,0,0,0,0,0,0,0,0,0,0,0,0,0,0,0,0,0,0,0,0,0,0,0,0,0,0,0,0,0,0,0,0,0,-0.3054,-0.3054,0,-0.3008,-0.3008,-0.3007,-0.2919,-0.2918,-0.2916,-0.2915,-0.2818,-0.2817,-0.2816,0,0,0,0,0,0,0,0,0,0,0,0,0,-0.3017,-0.3018,-0.3055,-0.3054,-0.3054,-0.3008,-0.3008,-0.3007,-0.2919,-0.2918,-0.2916,-0.2914,-0.2819,-0.2817,-0.2816,0,0,0,0,0,0,0,0,0,0,0,0,0,-0.3006,-0.3019,-0.3055,-0.3007,-0.3002,-0.3009,-0.3008,-0.3006,-0.292,-0.2918,-0.2915,-0.2913,-0.2819,-0.2817,-0.2816,-0.2849,0,0,-0.281,-0.2809,0,0,0,0,0,0,0,0,-0.3007,-0.3007,-0.3014,-0.301,-0.3005,-0.2969,-0.2959,-0.2952,-0.292,-0.2948,-0.2915,-0.2912,-0.2867,-0.2862,-0.2855,-0.2844,-0.284,-0.281,-0.2809,-0.2808,-0.2808,0,0,0,0,0,0,0,-0.3008,-0.3009,-0.3034,-0.3014,-0.3008,-0.297,-0.2967,-0.2957,-0.2918,-0.2946,-0.294,-0.294,-0.2864,-0.2857,-0.2852,-0.2839,-0.281,-0.2808,-0.2807,-0.2807,-0.2799,-0.2799,0,0,0,0,0,0,-0.3024,-0.301,-0.3035,-0.3032,-0.3003,-0.2973,-0.2969,-0.2981,-0.2919,-0.2909,-0.2941,-0.2936,-0.2861,-0.2854,-0.2848,-0.2845,-0.2808,-0.2806,-0.2805,-0.2798,-0.2799,-0.28,0,0,0,0,0,0,-0.3024,-0.3028,-0.3037,-0.3021,-0.302,-0.2977,-0.2991,-0.2981,-0.2972,-0.2917,-0.2904,-0.2942,-0.2859,-0.2851,-0.2833,-0.2841,-0.2806,-0.2804,-0.2797,-0.2798,-0.2799,-0.2863,0,0,0,0,0,0,-0.3023,-0.3028,-0.3039,-0.3023,-0.3021,-0.3038,-0.2993,-0.2982,-0.2976,-0.2968,-0.2914,-0.2902,-0.2857,-0.2836,-0.2832,-0.2838,-0.2803,-0.2796,-0.2797,-0.2799,-0.286,-0.2866,-0.2872,0,0,0,0,0,-0.3022,-0.3036,-0.304,-0.3043,-0.304,-0.3039,-0.3034,-0.2994,-0.2979,-0.2977,-0.294,-0.2903,-0.2843,-0.2836,-0.283,-0.2836,-0.2795,-0.2797,-0.2799,-0.2857,-0.2865,-0.2872,0,0,0,0,0,0,-0.3022,-0.3029,-0.3032,-0.3048,-0.3048,-0.3025,-0.3016,-0.3009,-0.2982,-0.2967,-0.292,-0.2907,-0.2892,-0.2866,-0.286,-0.2839,-0.2812,-0.2812,-0.2858,-0.2865,-0.2871,-0.2881,-0.2801,0,0,0,0,0,-0.3035,-0.3044,-0.3052,-0.3063,-0.3066,-0.3052,-0.3048,-0.3028,-0.3006,-0.2992,-0.296,-0.2924,-0.29,-0.2883,-0.2854,-0.2855,-0.2795,-0.2854,-0.286,-0.2866,-0.287,-0.2799,-0.2798,-0.2806,-0.2806,-0.2806,0,0,-0.304,-0.3042,-0.3049,-0.3063,-0.3055,-0.3071,-0.3042,-0.3037,-0.3042,-0.2988,-0.2978,-0.2947,-0.2906,-0.2891,-0.2882,-0.2867,-0.2826,-0.2868,-0.2873,-0.2875,-0.2801,-0.28,-0.2799,-0.2807,-0.2807,-0.2807,0,0,-0.3051,-0.3058,-0.3073,-0.3081,-0.3082,-0.3076,-0.3085,-0.3077,-0.3059,-0.3061,-0.3017,-0.2995,-0.2966,-0.293,-0.2912,-0.2943,-0.2862,-0.2937,-0.2973,-0.2904,-0.2902,-0.29,-0.2794,-0.2782,-0.2938,-0.2938,-0.2938,0,-0.3068,-0.3081,-0.3076,-0.3095,-0.3098,-0.3089,-0.3108,-0.3104,-0.3089,-0.3073,-0.3059,-0.3009,-0.2982,-0.2957,-0.2969,-0.2955,-0.289,-0.2948,-0.291,-0.2907,-0.2903,-0.2796,-0.2782,-0.2941,-0.2941,-0.2941,-0.294,0,-0.3079,-0.3106,-0.3111,-0.3137,-0.314,-0.315,-0.3152,-0.315,-0.3136,-0.3122,-0.3095,-0.3059,-0.3023,-0.302,-0.3009,-0.2981,-0.2932,-0.2925,-0.2889,-0.2906,-0.2792,-0.2776,-0.2946,-0.2945,-0.2944,-0.2943,0,0,-0.3087,-0.3121,-0.3124,-0.3138,-0.316,-0.3157,-0.3175,-0.3172,-0.3159,-0.3149,-0.3124,-0.311,-0.3085,-0.3065,-0.3041,-0.3,-0.2925,-0.2967,-0.2962,-0.2858,-0.2738,-0.2655,-0.2628,-0.291,-0.2908,-0.2907,-0.2657,0,-0.3105,-0.3138,-0.3152,-0.3183,-0.3197,-0.32,-0.3208,-0.3198,-0.3181,-0.3154,-0.3121,-0.309,-0.3103,-0.308,-0.3049,-0.2952,-0.2891,-0.2992,-0.2742,-0.2734,-0.2654,-0.2611,-0.2511,-0.2276,-0.2641,-0.2638,-0.2636,0,-0.3106,-0.3124,-0.315,-0.3184,-0.319,-0.3206,-0.3185,-0.3192,-0.3164,-0.3148,-0.3125,-0.3097,-0.305,-0.3056,-0.29,-0.2961,-0.2865,-0.279,-0.2778,-0.2671,-0.2622,-0.2324,-0.2233,-0.2234,-0.2611,-0.2613,-0.2615,0,-0.3057,-0.3124,-0.3131,-0.3143,-0.3177,-0.3179,-0.3191,-0.3174,-0.3155,-0.3134,-0.3105,-0.3059,-0.2988,-0.2908,-0.2782,-0.2831,-0.2576,-0.261,-0.2435,-0.2425,-0.2275,-0.2256,-0.2153,-0.249,-0.249,-0.2491,-0.2492,0,-0.3041,-0.3045,-0.3109,-0.3104,-0.31,-0.314,-0.3121,-0.3126,-0.3115,-0.3059,-0.3091,-0.3018,-0.2949,-0.2812,-0.2737,-0.251,-0.2524,-0.2417,-0.2355,-0.2292,-0.2279,-0.2223,-0.2279,-0.2482,-0.2484,-0.2486,-0.2487,0,-0.294,-0.2995,-0.3001,-0.3054,-0.3068,-0.3045,-0.3076,-0.3048,-0.3068,-0.2995,-0.2986,-0.2929,-0.2745,-0.2648,-0.2448,-0.2394,-0.2179,-0.2146,-0.2062,-0.1997,-0.1883,-0.1946,-0.1771,-0.1717,-0.1917,-0.1914,-0.1911,0,-0.2865,-0.287,-0.293,-0.2921,-0.2936,-0.2941,-0.2927,-0.2988,-0.2955,-0.2914,-0.2845,-0.2702,-0.2538,-0.2234,-0.2099,-0.1897,-0.1963,-0.1729,-0.1833,-0.184,-0.1864,-0.1932,-0.1907,-0.1633,-0.1628,-0.1624,-0.1621,0,-0.2721,-0.2758,-0.2756,-0.2745,-0.2744,-0.2743,-0.2744,-0.2726,-0.2752,-0.2703,-0.2557,-0.2438,-0.2181,-0.1921,-0.1714,-0.1611,-0.1717,-0.1639,-0.166,-0.1645,-0.1693,-0.1622,-0.1826,-0.1585,-0.1588,-0.1591,-0.1593,-0.1594,-0.2586,-0.2544,-0.2554,-0.2511,-0.2516,-0.2472,-0.2413,-0.2432,-0.2348,-0.2215,-0.2224,-0.1995,-0.1847,-0.1529,-0.1425,-0.1287,-0.1393,-0.128,-0.1348,-0.141,-0.1397,-0.1515,-0.1218,-0.122,-0.1221,-0.1222,-0.1223,0,-0.239,-0.235,-0.2316,-0.2253,-0.2163,-0.2246,-0.2207,-0.2115,-0.196,-0.1898,-0.1745,-0.1531,-0.1324,-0.1243,-0.112,-0.1047,-0.1047,-0.1035,-0.1125,-0.1107,-0.1184,-0.1215,-0.0887,-0.0887,-0.0887,-0.0887,-0.0887,-0.0887,-0.2277,-0.2152,-0.2114,-0.1882,-0.1844,-0.1671,-0.1609,-0.1541,-0.147,-0.1252,-0.1125,-0.1026,-0.1052,-0.116,-0.107,-0.0995,-0.1011,-0.0948,-0.1007,-0.1109,-0.1139,-0.1168,-0.1209,-0.0886,-0.0886,-0.0868,-0.0869,-0.0869]},{"header":{"parameterUnit":"m.s-1","parameterCategory":2,"la1":30.2991,"la2":30.254,"lo1":-89.0895,"lo2":-89.0444,"dy":0.0017,"dx":0.0017,"nx":28,"ny":28,"refTime":"2024-03-06T03:00:00:Z","depth":"0","parameterNumber":3,"parameterNumberName":"V-component_of_CURRENTS"},"data":[0,0,0,0,0,0,0,0,0,0,0,0,0,0,0,0,0,0,0,0,0,0,0,0,0,0,0,0,0,0,0,0,0,0,0,0,0,0,0,0,0,0,0,0,0,0,0,0,0,0,0,0,0,0,0,0,0,0,-0.0877,-0.0875,0,-0.0703,-0.0701,-0.0699,-0.06,-0.06,-0.06,-0.06,-0.0392,-0.0387,-0.0381,0,0,0,0,0,0,0,0,0,0,0,0,0,-0.1023,-0.1021,-0.0877,-0.0875,-0.0873,-0.0704,-0.0701,-0.0699,-0.06,-0.06,-0.06,-0.06,-0.0394,-0.0387,-0.0381,0,0,0,0,0,0,0,0,0,0,0,0,0,-0.0914,-0.1021,-0.0877,-0.0805,-0.0796,-0.0704,-0.0701,-0.0698,-0.06,-0.06,-0.06,-0.0599,-0.0396,-0.0388,-0.038,-0.0337,0,0,-0.0356,-0.0352,0,0,0,0,0,0,0,0,-0.0921,-0.0909,-0.0817,-0.0809,-0.08,-0.0674,-0.0676,-0.0576,-0.06,-0.0673,-0.06,-0.0599,-0.0484,-0.0469,-0.0436,-0.0328,-0.0319,-0.0355,-0.035,-0.0347,-0.0344,0,0,0,0,0,0,0,-0.0929,-0.0915,-0.0807,-0.0815,-0.0805,-0.0746,-0.0731,-0.0656,-0.0581,-0.0667,-0.066,-0.0643,-0.0479,-0.0444,-0.043,-0.0316,-0.0355,-0.0348,-0.0343,-0.034,-0.0151,-0.0151,0,0,0,0,0,0,-0.0958,-0.0923,-0.0812,-0.0802,-0.0862,-0.0744,-0.0727,-0.0714,-0.0582,-0.0563,-0.0643,-0.0639,-0.0457,-0.0439,-0.0422,-0.0369,-0.0347,-0.0339,-0.0335,-0.0151,-0.0151,-0.0151,0,0,0,0,0,0,-0.0962,-0.095,-0.0819,-0.0859,-0.0839,-0.0743,-0.0728,-0.0711,-0.068,-0.0565,-0.0544,-0.0632,-0.0456,-0.0433,-0.0359,-0.036,-0.0336,-0.0328,-0.0152,-0.0151,-0.0151,-0.0259,0,0,0,0,0,0,-0.0967,-0.0953,-0.0951,-0.0862,-0.0838,-0.077,-0.0728,-0.0708,-0.067,-0.0663,-0.0548,-0.0528,-0.0454,-0.0371,-0.0351,-0.0349,-0.0322,-0.0152,-0.0151,-0.0151,-0.0256,-0.0263,-0.0268,0,0,0,0,0,-0.0973,-0.0962,-0.0953,-0.0939,-0.084,-0.077,-0.0752,-0.0682,-0.0671,-0.0655,-0.0581,-0.0532,-0.0354,-0.0365,-0.0341,-0.0336,-0.0152,-0.0152,-0.0151,-0.0253,-0.0261,-0.0268,0,0,0,0,0,0,-0.1021,-0.0949,-0.0936,-0.0905,-0.0852,-0.0754,-0.0727,-0.0695,-0.0624,-0.0616,-0.0524,-0.0498,-0.0435,-0.037,-0.0384,-0.028,-0.0246,-0.0241,-0.0332,-0.0339,-0.0345,-0.0365,-0.0315,0,0,0,0,0,-0.1037,-0.1012,-0.0942,-0.092,-0.0896,-0.0823,-0.0788,-0.0744,-0.0671,-0.064,-0.0566,-0.0483,-0.0413,-0.0367,-0.0291,-0.0231,-0.0163,-0.0213,-0.0219,-0.0225,-0.0224,-0.0119,-0.0116,-0.0149,-0.0149,-0.0149,0,0,-0.1056,-0.1008,-0.0999,-0.093,-0.0881,-0.0851,-0.08,-0.0749,-0.0725,-0.0628,-0.0572,-0.0503,-0.0403,-0.0337,-0.0303,-0.0283,-0.0184,-0.0224,-0.023,-0.0226,-0.0118,-0.0114,-0.0112,-0.0149,-0.0149,-0.0149,0,0,-0.1074,-0.1037,-0.1026,-0.0986,-0.0919,-0.0869,-0.0867,-0.0783,-0.0744,-0.0686,-0.0616,-0.055,-0.044,-0.0365,-0.0316,-0.0309,-0.0226,-0.0291,-0.0329,-0.0228,-0.0224,-0.022,-0.0153,-0.0142,-0.0288,-0.0288,-0.0288,0,-0.1115,-0.108,-0.1013,-0.0991,-0.0965,-0.0891,-0.0882,-0.0827,-0.0733,-0.07,-0.0682,-0.0523,-0.045,-0.0362,-0.0367,-0.0323,-0.0264,-0.0315,-0.0237,-0.0231,-0.0225,-0.0157,-0.0144,-0.0293,-0.0293,-0.0292,-0.0292,0,-0.1112,-0.11,-0.1086,-0.1043,-0.1002,-0.0977,-0.0905,-0.0864,-0.0821,-0.0765,-0.0679,-0.0575,-0.0479,-0.0453,-0.041,-0.0335,-0.0308,-0.0266,-0.0225,-0.0229,-0.0157,-0.0141,-0.0301,-0.0299,-0.0297,-0.0296,0,0,-0.1189,-0.1111,-0.1112,-0.1108,-0.1031,-0.1001,-0.0957,-0.0892,-0.0862,-0.0776,-0.0721,-0.0619,-0.0565,-0.0506,-0.0435,-0.0356,-0.0282,-0.0308,-0.03,-0.0256,-0.0079,-0.0061,-0.0041,-0.0226,-0.0223,-0.0221,-0.0055,0,-0.1226,-0.1208,-0.1149,-0.1148,-0.1137,-0.1061,-0.1024,-0.0952,-0.0881,-0.0805,-0.0696,-0.0616,-0.0582,-0.0536,-0.0456,-0.0313,-0.0241,-0.0333,-0.007,-0.0062,-0.0055,-0.0022,0.0032,0.0185,-0.0039,-0.0036,-0.0034,0,-0.1255,-0.1232,-0.1235,-0.1197,-0.1186,-0.1174,-0.11,-0.1055,-0.0929,-0.087,-0.0772,-0.0673,-0.0549,-0.0518,-0.0291,-0.035,-0.0235,-0.0133,-0.0122,-0.0053,-0.0013,0.0161,0.0224,0.0377,-0.0009,-0.0011,-0.0013,0,-0.133,-0.1305,-0.1311,-0.1297,-0.123,-0.1222,-0.1189,-0.1082,-0.1028,-0.0906,-0.084,-0.0688,-0.058,-0.0422,-0.0229,-0.0248,0.0026,0.0041,0.0164,0.0165,0.0291,0.0299,0.0527,0.0199,0.0199,0.0198,0.0198,0,-0.1386,-0.1393,-0.1353,-0.1355,-0.136,-0.1292,-0.1269,-0.1211,-0.1094,-0.1009,-0.0884,-0.0765,-0.0547,-0.0361,-0.0217,0.0024,0.0046,0.0167,0.0222,0.0251,0.0253,0.0456,0.0506,0.0204,0.0203,0.0202,0.0201,0,-0.145,-0.1425,-0.144,-0.1405,-0.1397,-0.1401,-0.1332,-0.1289,-0.1188,-0.1066,-0.1021,-0.0792,-0.0547,-0.0338,-0.0048,0.0061,0.0381,0.0347,0.0341,0.0392,0.062,0.0659,0.0927,0.1036,0.0512,0.0514,0.0515,0,-0.1471,-0.1486,-0.1493,-0.1501,-0.149,-0.1475,-0.1443,-0.1351,-0.1282,-0.1063,-0.0989,-0.0735,-0.0517,-0.0117,0.0132,0.0398,0.0501,0.0571,0.0544,0.0653,0.074,0.0752,0.0825,0.0666,0.0668,0.067,0.0672,0,-0.1514,-0.1531,-0.1534,-0.1554,-0.1552,-0.1528,-0.1477,-0.1433,-0.1278,-0.1147,-0.0904,-0.0715,-0.0319,0.0041,0.035,0.0498,0.0691,0.0619,0.0775,0.0911,0.0905,0.1029,0.0502,0.069,0.0688,0.0687,0.0686,0.0685,-0.155,-0.1563,-0.1577,-0.1583,-0.1581,-0.1543,-0.1499,-0.1393,-0.1255,-0.098,-0.0844,-0.0473,-0.0045,0.0427,0.0602,0.0941,0.088,0.1026,0.1074,0.1081,0.1168,0.0644,0.0861,0.086,0.0859,0.0859,0.0858,0,-0.1572,-0.1564,-0.1589,-0.1583,-0.1564,-0.1559,-0.1468,-0.136,-0.116,-0.0866,-0.0609,-0.0037,0.0388,0.0776,0.1207,0.139,0.1437,0.1462,0.1523,0.1585,0.1184,0.1171,0.1415,0.1415,0.1415,0.1414,0.1414,0.1414,-0.1574,-0.1578,-0.1567,-0.1535,-0.1525,-0.1441,-0.137,-0.1198,-0.0961,-0.0477,-0.0062,0.0243,0.071,0.1341,0.1763,0.1802,0.1988,0.1941,0.2038,0.1776,0.1739,0.1704,0.1707,0.2059,0.206,0.2445,0.2448,0.2451]}],[{"header":{"parameterUnit":"m.s-1","parameterCategory":2,"la1":30.2991,"la2":30.254,"lo1":-89.0895,"lo2":-89.0444,"dy":0.0017,"dx":0.0017,"nx":28,"ny":28,"refTime":"2024-03-06T03:00:00:Z","depth":"2","parameterNumber":2,"parameterNumberName":"U-component_of_CURRENTS"},"data":[0,0,0,0,0,0,0,0,0,0,0,0,0,0,0,0,0,0,0,0,0,0,0,0,0,0,0,0,0,0,0,0,0,0,0,0,0,0,0,0,0,0,0,0,0,0,0,0,0,0,0,0,0,0,0,0,0,0,-0.2111,-0.2111,0,-0.2117,-0.2117,-0.2116,-0.2118,-0.2119,-0.2119,-0.2119,-0.2123,-0.2123,-0.2123,0,0,0,0,0,0,0,0,0,0,0,0,0,-0.2052,-0.2053,-0.211,-0.2111,-0.2111,-0.2117,-0.2117,-0.2116,-0.2118,-0.2119,-0.2119,-0.212,-0.2123,-0.2123,-0.2123,0,0,0,0,0,0,0,0,0,0,0,0,0,-0.2066,-0.2054,-0.211,-0.2116,-0.2117,-0.2117,-0.2117,-0.2116,-0.2118,-0.2119,-0.2119,-0.212,-0.2124,-0.2123,-0.2123,-0.211,0,0,-0.2122,-0.2122,0,0,0,0,0,0,0,0,-0.2065,-0.2068,-0.2115,-0.2116,-0.2117,-0.2121,-0.2098,-0.2116,-0.2118,-0.2113,-0.2119,-0.212,-0.2125,-0.2124,-0.2118,-0.211,-0.211,-0.2122,-0.2122,-0.2121,-0.2121,0,0,0,0,0,0,0,-0.2065,-0.2067,-0.2109,-0.2115,-0.2117,-0.2103,-0.2105,-0.2101,-0.2112,-0.2114,-0.2115,-0.2122,-0.2125,-0.2119,-0.2118,-0.211,-0.2122,-0.2121,-0.2121,-0.2121,-0.2155,-0.2156,0,0,0,0,0,0,-0.2074,-0.2067,-0.2109,-0.2109,-0.2097,-0.2104,-0.2106,-0.2116,-0.2113,-0.2114,-0.2122,-0.2122,-0.2119,-0.2119,-0.2119,-0.2157,-0.2121,-0.2121,-0.2121,-0.2153,-0.2155,-0.2156,0,0,0,0,0,0,-0.2073,-0.2078,-0.2108,-0.2091,-0.2095,-0.2105,-0.2115,-0.2116,-0.2133,-0.212,-0.212,-0.2141,-0.2119,-0.2119,-0.2136,-0.2156,-0.2121,-0.2121,-0.2152,-0.2154,-0.2155,-0.22,0,0,0,0,0,0,-0.2071,-0.2078,-0.2092,-0.2092,-0.2096,-0.2132,-0.2115,-0.2116,-0.2137,-0.2138,-0.2136,-0.2136,-0.212,-0.2137,-0.2136,-0.2154,-0.212,-0.2151,-0.2153,-0.2155,-0.2197,-0.2203,-0.2208,0,0,0,0,0,-0.2069,-0.2092,-0.2092,-0.2098,-0.2114,-0.2134,-0.2135,-0.214,-0.2138,-0.2154,-0.215,-0.2137,-0.2149,-0.2137,-0.2136,-0.2155,-0.215,-0.2152,-0.2155,-0.2195,-0.2202,-0.2208,0,0,0,0,0,0,-0.2069,-0.2095,-0.2095,-0.2123,-0.2137,-0.2137,-0.2147,-0.2154,-0.2162,-0.2157,-0.2148,-0.2148,-0.217,-0.2159,-0.2146,-0.2172,-0.2149,-0.2151,-0.2179,-0.2186,-0.2191,-0.2181,-0.212,0,0,0,0,0,-0.2077,-0.2108,-0.2118,-0.2144,-0.2145,-0.2148,-0.2158,-0.2161,-0.2167,-0.2171,-0.217,-0.2168,-0.2174,-0.2179,-0.2178,-0.219,-0.2159,-0.2203,-0.2209,-0.2213,-0.2205,-0.2187,-0.2189,-0.2164,-0.2164,-0.2164,0,0,-0.2069,-0.2103,-0.2109,-0.2147,-0.2146,-0.2159,-0.2154,-0.2171,-0.2187,-0.2169,-0.2187,-0.2187,-0.2183,-0.2198,-0.2207,-0.2193,-0.2203,-0.2216,-0.222,-0.2209,-0.2189,-0.2191,-0.2193,-0.2166,-0.2165,-0.2165,0,0,-0.2081,-0.2109,-0.2127,-0.215,-0.2175,-0.2178,-0.2192,-0.2198,-0.2205,-0.2225,-0.2216,-0.223,-0.2239,-0.2236,-0.2237,-0.2272,-0.2234,-0.228,-0.2296,-0.2279,-0.2281,-0.2282,-0.2236,-0.2232,-0.2281,-0.2281,-0.2281,0,-0.207,-0.2108,-0.2134,-0.2165,-0.2182,-0.2192,-0.2203,-0.2215,-0.2232,-0.224,-0.224,-0.2252,-0.2254,-0.2268,-0.2282,-0.2284,-0.2257,-0.2272,-0.2285,-0.2285,-0.2285,-0.2238,-0.2234,-0.2284,-0.2284,-0.2283,-0.2283,0,-0.2091,-0.2124,-0.2138,-0.218,-0.2204,-0.2221,-0.2238,-0.2261,-0.2272,-0.2279,-0.23,-0.2295,-0.2304,-0.2313,-0.2309,-0.2318,-0.2292,-0.2294,-0.2265,-0.229,-0.2239,-0.2234,-0.2287,-0.2286,-0.2286,-0.2285,0,0,-0.2041,-0.213,-0.2132,-0.2156,-0.2214,-0.2226,-0.2265,-0.2291,-0.2307,-0.2324,-0.2338,-0.2356,-0.2351,-0.2351,-0.2347,-0.2333,-0.2315,-0.2317,-0.2315,-0.2264,-0.2253,-0.2168,-0.2153,-0.232,-0.232,-0.232,-0.2214,0,-0.2037,-0.2095,-0.2144,-0.2181,-0.22,-0.2245,-0.2281,-0.2315,-0.2334,-0.2352,-0.2355,-0.2363,-0.2367,-0.2367,-0.236,-0.2327,-0.2304,-0.2341,-0.2242,-0.2239,-0.2153,-0.2145,-0.1999,-0.1887,-0.2208,-0.2207,-0.2206,0,-0.2025,-0.2079,-0.2115,-0.219,-0.2197,-0.2229,-0.2281,-0.2311,-0.2352,-0.2369,-0.2384,-0.2382,-0.2376,-0.2371,-0.2319,-0.2342,-0.2303,-0.2269,-0.2264,-0.2162,-0.2142,-0.1916,-0.1864,-0.2196,-0.2197,-0.2198,-0.2198,0,-0.1973,-0.2047,-0.2079,-0.2106,-0.2192,-0.2221,-0.226,-0.2314,-0.233,-0.237,-0.2373,-0.238,-0.2358,-0.2331,-0.2275,-0.2298,-0.2191,-0.2215,-0.2093,-0.2086,-0.1928,-0.1907,-0.2168,-0.2168,-0.2168,-0.2169,-0.2169,0,-0.1956,-0.1978,-0.206,-0.2084,-0.2119,-0.219,-0.2218,-0.2268,-0.2314,-0.2312,-0.2365,-0.2345,-0.2346,-0.2293,-0.226,-0.2141,-0.2179,-0.2077,-0.2051,-0.1939,-0.1921,-0.217,-0.2172,-0.2165,-0.2166,-0.2166,-0.2167,0,-0.1891,-0.1952,-0.1988,-0.2074,-0.2099,-0.2119,-0.219,-0.2201,-0.2265,-0.2261,-0.2269,-0.2297,-0.2227,-0.2198,-0.2127,-0.2089,-0.2008,-0.1957,-0.181,-0.1769,-0.1918,-0.1924,-0.1814,-0.181,-0.1806,-0.1803,-0.1801,0,-0.1861,-0.1877,-0.1952,-0.1971,-0.2012,-0.2056,-0.208,-0.2164,-0.2175,-0.2211,-0.2192,-0.2153,-0.209,-0.196,-0.1877,-0.1774,-0.1876,-0.1603,-0.163,-0.1895,-0.1881,-0.1892,-0.1902,-0.1432,-0.1427,-0.1423,-0.1419,0,-0.1792,-0.1817,-0.1846,-0.1884,-0.1915,-0.1937,-0.1983,-0.1984,-0.2054,-0.2046,-0.2008,-0.1961,-0.1854,-0.1683,-0.1575,-0.151,-0.1616,-0.1513,-0.1808,-0.1556,-0.1529,-0.1519,-0.1542,-0.1382,-0.1385,-0.1388,-0.139,-0.1392,-0.1717,-0.1715,-0.1746,-0.1771,-0.1798,-0.1791,-0.176,-0.1799,-0.1773,-0.1726,-0.1775,-0.1651,-0.163,-0.1369,-0.1279,-0.121,-0.1329,-0.1294,-0.1309,-0.1329,-0.1315,-0.1285,-0.1087,-0.1089,-0.1091,-0.1092,-0.1093,0,-0.1605,-0.1618,-0.1631,-0.1645,-0.1611,-0.167,-0.1662,-0.1595,-0.1509,-0.149,-0.1426,-0.1236,-0.1114,-0.11,-0.0927,-0.0898,-0.0911,-0.0873,-0.0906,-0.0942,-0.0974,-0.0946,-0.0618,-0.0617,-0.0616,-0.0615,0,0,-0.1552,-0.152,-0.1528,-0.1443,-0.1445,-0.1341,-0.1299,-0.1227,-0.118,-0.1051,-0.098,-0.1026,-0.1047,-0.0834,-0.0784,-0.0676,-0.0802,-0.0632,-0.1007,-0.108,-0.1112,-0.1204,-0.1198,0,0,0,0,0]},{"header":{"parameterUnit":"m.s-1","parameterCategory":2,"la1":30.2991,"la2":30.254,"lo1":-89.0895,"lo2":-89.0444,"dy":0.0017,"dx":0.0017,"nx":28,"ny":28,"refTime":"2024-03-06T03:00:00:Z","depth":"2","parameterNumber":3,"parameterNumberName":"V-component_of_CURRENTS"},"data":[0,0,0,0,0,0,0,0,0,0,0,0,0,0,0,0,0,0,0,0,0,0,0,0,0,0,0,0,0,0,0,0,0,0,0,0,0,0,0,0,0,0,0,0,0,0,0,0,0,0,0,0,0,0,0,0,0,0,-0.0389,-0.0389,0,-0.0315,-0.0314,-0.0313,-0.0265,-0.0265,-0.0265,-0.0265,-0.0142,-0.0139,-0.0136,0,0,0,0,0,0,0,0,0,0,0,0,0,-0.0421,-0.0421,-0.0389,-0.0389,-0.0388,-0.0315,-0.0314,-0.0313,-0.0265,-0.0265,-0.0265,-0.0265,-0.0143,-0.014,-0.0136,0,0,0,0,0,0,0,0,0,0,0,0,0,-0.0382,-0.0421,-0.0389,-0.0357,-0.0353,-0.0315,-0.0314,-0.0312,-0.0265,-0.0265,-0.0265,-0.0265,-0.0145,-0.014,-0.0135,-0.011,0,0,-0.0121,-0.0119,0,0,0,0,0,0,0,0,-0.0384,-0.038,-0.0362,-0.0359,-0.0355,-0.0301,-0.028,-0.0243,-0.0265,-0.0297,-0.0265,-0.0265,-0.0192,-0.0183,-0.0168,-0.0104,-0.0099,-0.012,-0.0118,-0.0116,-0.0114,0,0,0,0,0,0,0,-0.0387,-0.0383,-0.0358,-0.0362,-0.0357,-0.0322,-0.0317,-0.0273,-0.0244,-0.0294,-0.0291,-0.0285,-0.0189,-0.0173,-0.0165,-0.0097,-0.0121,-0.0116,-0.0113,-0.0112,0.0001,0.0002,0,0,0,0,0,0,-0.0404,-0.0386,-0.036,-0.0356,-0.0371,-0.0322,-0.0316,-0.0317,-0.0246,-0.0235,-0.0286,-0.0284,-0.0181,-0.017,-0.016,-0.0128,-0.0116,-0.0111,-0.0108,0.0001,0.0001,0.0002,0,0,0,0,0,0,-0.0405,-0.0402,-0.0364,-0.037,-0.0363,-0.0323,-0.0323,-0.0316,-0.0305,-0.024,-0.0229,-0.0284,-0.018,-0.0167,-0.0125,-0.0123,-0.0109,-0.0105,0.0001,0.0001,0.0002,-0.0062,0,0,0,0,0,0,-0.0406,-0.0403,-0.0413,-0.0372,-0.0363,-0.0349,-0.0323,-0.0314,-0.0302,-0.0299,-0.0235,-0.0223,-0.0179,-0.0133,-0.012,-0.0116,-0.0101,0.0001,0.0001,0.0001,-0.006,-0.0064,-0.0067,0,0,0,0,0,-0.0408,-0.0421,-0.0414,-0.0411,-0.0377,-0.035,-0.0342,-0.0311,-0.0303,-0.03,-0.0256,-0.0225,-0.0122,-0.0129,-0.0114,-0.0109,0.0001,0.0001,0.0001,-0.0058,-0.0063,-0.0067,0,0,0,0,0,0,-0.0434,-0.0416,-0.0408,-0.0414,-0.0389,-0.0343,-0.0337,-0.032,-0.0284,-0.0281,-0.0222,-0.0207,-0.0171,-0.0131,-0.014,-0.0075,-0.0055,-0.0052,-0.0106,-0.0109,-0.0113,-0.0123,-0.0097,0,0,0,0,0,-0.0448,-0.0462,-0.0426,-0.0435,-0.042,-0.0382,-0.0369,-0.035,-0.0312,-0.0297,-0.025,-0.02,-0.0157,-0.0129,-0.0085,-0.0047,-0.0003,-0.0034,-0.0037,-0.0041,-0.0039,0.0027,0.0029,0.0003,0.0003,0.0003,0,0,-0.0459,-0.0456,-0.046,-0.0443,-0.0417,-0.0403,-0.0373,-0.0358,-0.0348,-0.0288,-0.0256,-0.0214,-0.0152,-0.0112,-0.0092,-0.0078,-0.0011,-0.004,-0.0044,-0.004,0.0027,0.003,0.0032,0.0003,0.0003,0.0003,0,0,-0.0488,-0.0483,-0.0497,-0.048,-0.0456,-0.0429,-0.043,-0.0385,-0.0364,-0.0334,-0.0288,-0.0243,-0.0179,-0.0128,-0.0097,-0.0092,-0.0038,-0.0081,-0.0099,-0.0035,-0.0033,-0.003,0.0021,0.003,-0.0076,-0.0076,-0.0076,0,-0.0502,-0.0518,-0.0495,-0.0497,-0.0488,-0.0445,-0.0444,-0.0415,-0.0365,-0.0345,-0.0333,-0.0232,-0.0184,-0.0125,-0.0124,-0.0099,-0.006,-0.0091,-0.0041,-0.0037,-0.0033,0.002,0.0029,-0.0079,-0.0079,-0.0079,-0.0078,0,-0.0535,-0.0543,-0.0546,-0.0539,-0.0523,-0.0518,-0.0473,-0.0453,-0.0426,-0.039,-0.0337,-0.0267,-0.0206,-0.0184,-0.0152,-0.0099,-0.0081,-0.006,-0.0034,-0.0034,0.0021,0.0032,-0.0084,-0.0083,-0.0082,-0.0081,0,0,-0.0571,-0.0571,-0.0571,-0.0577,-0.0548,-0.0538,-0.0516,-0.0478,-0.0461,-0.0407,-0.0373,-0.0298,-0.0259,-0.0221,-0.0169,-0.0111,-0.0053,-0.0079,-0.0075,-0.0036,0.008,0.0097,0.0111,-0.0026,-0.0024,-0.0022,0.0104,0,-0.0601,-0.0629,-0.0612,-0.0624,-0.0628,-0.0584,-0.0567,-0.0529,-0.0483,-0.0437,-0.0359,-0.0309,-0.0272,-0.0244,-0.0181,-0.0084,-0.0025,-0.0089,0.0082,0.0087,0.0096,0.0124,0.0109,0.0221,0.0115,0.0117,0.0119,0,-0.0633,-0.0653,-0.0678,-0.0675,-0.0668,-0.0667,-0.0632,-0.061,-0.0532,-0.0494,-0.0426,-0.036,-0.0269,-0.0241,-0.0075,-0.0119,-0.0028,0.0048,0.0056,0.0102,0.0125,0.0207,0.0246,0.0138,0.0136,0.0135,0.0134,0,-0.0684,-0.0692,-0.0722,-0.0722,-0.0709,-0.0709,-0.0694,-0.0632,-0.0606,-0.0527,-0.0492,-0.038,-0.0312,-0.0192,-0.0042,-0.0054,0.0144,0.0151,0.0254,0.0256,0.0294,0.0296,0.0272,0.0272,0.0272,0.0271,0.0271,0,-0.0729,-0.0748,-0.0753,-0.0774,-0.08,-0.0765,-0.0765,-0.073,-0.0664,-0.062,-0.0529,-0.0459,-0.0294,-0.0162,-0.0041,0.0142,0.0149,0.0261,0.0297,0.027,0.0269,0.0237,0.0231,0.0276,0.0275,0.0274,0.0273,0,-0.0778,-0.0782,-0.082,-0.0828,-0.0832,-0.0851,-0.0826,-0.0814,-0.0748,-0.0685,-0.0659,-0.0502,-0.0323,-0.0159,0.006,0.0153,0.0317,0.0381,0.033,0.0358,0.0385,0.0374,0.0509,0.0511,0.0512,0.0513,0.0514,0,-0.0807,-0.0834,-0.0872,-0.09,-0.0909,-0.0924,-0.0928,-0.0871,-0.0838,-0.0698,-0.0661,-0.048,-0.0328,-0.0021,0.018,0.0398,0.0387,0.0493,0.047,0.0392,0.0413,0.04,0.0388,0.0497,0.0498,0.0498,0.0499,0,-0.086,-0.0874,-0.0908,-0.097,-0.0996,-0.1008,-0.0997,-0.0977,-0.0879,-0.0794,-0.063,-0.0498,-0.02,0.0057,0.0315,0.0429,0.045,0.0514,0.0477,0.0426,0.0388,0.0405,0.0393,0.0505,0.0504,0.0504,0.0503,0.0503,-0.0892,-0.0933,-0.0979,-0.1031,-0.1061,-0.1065,-0.105,-0.0988,-0.0907,-0.0724,-0.0613,-0.0369,-0.0154,0.0247,0.0413,0.0557,0.055,0.0581,0.0576,0.0571,0.0535,0.0499,0.0631,0.0631,0.0631,0.0631,0.0631,0,-0.0927,-0.0971,-0.103,-0.1087,-0.1115,-0.1115,-0.107,-0.0998,-0.0866,-0.0684,-0.0497,-0.0213,0.0056,0.0271,0.0519,0.0648,0.0622,0.0651,0.0598,0.0592,0.0586,0.0547,0.0649,0.0649,0.065,0.065,0,0,-0.0949,-0.1015,-0.1048,-0.1113,-0.1141,-0.1126,-0.1083,-0.0938,-0.078,-0.0548,-0.0352,-0.0146,0.0101,0.0281,0.0436,0.0558,0.0532,0.0556,0.0528,0.044,0.0433,0.0533,0.0465,0,0,0,0,0]}],[{"header":{"parameterUnit":"m.s-1","parameterCategory":2,"la1":30.2991,"la2":30.254,"lo1":-89.0895,"lo2":-89.0444,"dy":0.0017,"dx":0.0017,"nx":28,"ny":28,"refTime":"2024-03-06T03:00:00:Z","depth":"4","parameterNumber":2,"parameterNumberName":"U-component_of_CURRENTS"},"data":[0,0,0,0,0,0,0,0,0,0,0,0,0,0,0,0,0,0,0,0,0,0,0,0,0,0,0,0,0,0,0,0,0,0,0,0,0,0,0,0,0,0,0,0,0,0,0,0,0,0,0,0,0,0,0,0,0,0,-0.1334,-0.1335,0,-0.1398,-0.1399,-0.14,-0.144,-0.144,-0.144,-0.144,-0.1528,-0.153,-0.1532,0,0,0,0,0,0,0,0,0,0,0,0,0,-0.1239,-0.124,-0.1334,-0.1335,-0.1336,-0.1398,-0.1399,-0.14,-0.1439,-0.144,-0.144,-0.1441,-0.1527,-0.153,-0.1532,0,0,0,0,0,0,0,0,0,0,0,0,0,-0.1288,-0.1241,-0.1334,-0.1364,-0.1367,-0.1398,-0.1399,-0.14,-0.1439,-0.144,-0.144,-0.1441,-0.1526,-0.1529,-0.1532,-0.1542,0,0,-0.1542,-0.1543,0,0,0,0,0,0,0,0,-0.1285,-0.1292,-0.1358,-0.1362,-0.1366,-0.1412,-0.1398,-0.1449,-0.1439,-0.1411,-0.144,-0.1441,-0.1492,-0.1498,-0.1507,-0.1546,-0.155,-0.1542,-0.1544,-0.1545,-0.1546,0,0,0,0,0,0,0,-0.1282,-0.1289,-0.1358,-0.1359,-0.1364,-0.1372,-0.138,-0.1408,-0.1447,-0.1413,-0.1417,-0.1425,-0.1494,-0.1504,-0.1509,-0.1551,-0.1542,-0.1545,-0.1547,-0.1548,-0.167,-0.1672,0,0,0,0,0,0,-0.1276,-0.1286,-0.1356,-0.136,-0.1327,-0.1373,-0.1382,-0.1396,-0.1447,-0.1455,-0.1425,-0.1427,-0.1498,-0.1506,-0.1513,-0.1593,-0.1545,-0.1548,-0.155,-0.1669,-0.1671,-0.1672,0,0,0,0,0,0,-0.1274,-0.1282,-0.1354,-0.1325,-0.1335,-0.1375,-0.139,-0.1397,-0.1432,-0.1456,-0.1464,-0.1456,-0.1499,-0.1508,-0.1566,-0.1594,-0.155,-0.1552,-0.1667,-0.1669,-0.1671,-0.1711,0,0,0,0,0,0,-0.1271,-0.1281,-0.1298,-0.1325,-0.1336,-0.1392,-0.139,-0.1398,-0.1435,-0.1439,-0.1484,-0.1491,-0.15,-0.1561,-0.1569,-0.1597,-0.1555,-0.1665,-0.1668,-0.1671,-0.1708,-0.1714,-0.172,0,0,0,0,0,-0.1268,-0.1289,-0.1298,-0.1308,-0.1356,-0.1393,-0.14,-0.1428,-0.1437,-0.146,-0.1493,-0.1491,-0.1583,-0.1565,-0.1574,-0.1604,-0.1664,-0.1667,-0.1671,-0.1705,-0.1713,-0.1719,0,0,0,0,0,0,-0.126,-0.1296,-0.1307,-0.1339,-0.1372,-0.1401,-0.1427,-0.1442,-0.1485,-0.1498,-0.1514,-0.1525,-0.1584,-0.159,-0.157,-0.1647,-0.1622,-0.1627,-0.1645,-0.1652,-0.1658,-0.1647,-0.1557,0,0,0,0,0,-0.1264,-0.1289,-0.1324,-0.1351,-0.1372,-0.1403,-0.1425,-0.1446,-0.1482,-0.1502,-0.1532,-0.1565,-0.1599,-0.1624,-0.1653,-0.1699,-0.1678,-0.1722,-0.1728,-0.1733,-0.173,-0.1726,-0.1731,-0.1683,-0.1683,-0.1683,0,0,-0.1268,-0.1292,-0.1306,-0.1352,-0.138,-0.1416,-0.1418,-0.1463,-0.1496,-0.1505,-0.1567,-0.1591,-0.1616,-0.1668,-0.1694,-0.168,-0.1735,-0.1737,-0.1741,-0.1735,-0.173,-0.1734,-0.1738,-0.1685,-0.1684,-0.1684,0,0,-0.1281,-0.1313,-0.1337,-0.1369,-0.1418,-0.1441,-0.1459,-0.1505,-0.1533,-0.1591,-0.1604,-0.1644,-0.1702,-0.172,-0.1735,-0.1791,-0.1767,-0.1807,-0.1829,-0.1826,-0.183,-0.1832,-0.1804,-0.1803,-0.1809,-0.1809,-0.1809,0,-0.1281,-0.1321,-0.1351,-0.1385,-0.1417,-0.1455,-0.1492,-0.1526,-0.1585,-0.161,-0.162,-0.1696,-0.1722,-0.1767,-0.1792,-0.1804,-0.1789,-0.18,-0.1832,-0.1834,-0.1836,-0.1806,-0.1805,-0.1811,-0.1811,-0.1811,-0.1811,0,-0.1312,-0.1351,-0.1373,-0.1427,-0.1464,-0.1507,-0.1555,-0.16,-0.1638,-0.1664,-0.1726,-0.1756,-0.1796,-0.1815,-0.1826,-0.186,-0.184,-0.1838,-0.1809,-0.1843,-0.181,-0.1808,-0.1815,-0.1814,-0.1813,-0.1813,0,0,-0.1289,-0.1375,-0.1386,-0.1417,-0.1493,-0.1524,-0.1588,-0.1648,-0.1683,-0.1738,-0.1774,-0.1837,-0.1846,-0.1864,-0.1877,-0.1881,-0.1888,-0.1873,-0.1872,-0.1835,-0.1864,-0.1734,-0.1719,-0.1894,-0.1894,-0.1894,-0.183,0,-0.1304,-0.1368,-0.1413,-0.148,-0.1517,-0.1577,-0.1627,-0.1686,-0.1734,-0.1779,-0.181,-0.1854,-0.1866,-0.1887,-0.1896,-0.1895,-0.1888,-0.1904,-0.1844,-0.1842,-0.1715,-0.1715,-0.1895,-0.1829,-0.1829,-0.1828,-0.1828,0,-0.1314,-0.1359,-0.1426,-0.1505,-0.1528,-0.1576,-0.166,-0.171,-0.1778,-0.1813,-0.1855,-0.1876,-0.1907,-0.1904,-0.1902,-0.1914,-0.1894,-0.188,-0.1878,-0.1739,-0.1709,-0.1791,-0.1825,-0.1825,-0.1825,-0.1826,-0.1826,0,-0.1274,-0.1364,-0.1418,-0.1449,-0.1545,-0.159,-0.1644,-0.1722,-0.1759,-0.183,-0.1851,-0.1892,-0.1903,-0.1899,-0.1883,-0.1899,-0.185,-0.1865,-0.1722,-0.1712,-0.1831,-0.1829,-0.1847,-0.1847,-0.1848,-0.1848,-0.1848,0,-0.126,-0.1305,-0.1407,-0.1438,-0.1497,-0.1574,-0.1637,-0.1696,-0.1764,-0.1788,-0.1859,-0.186,-0.1904,-0.1885,-0.1873,-0.1775,-0.184,-0.1711,-0.1684,-0.1849,-0.1849,-0.1829,-0.1827,-0.1845,-0.1846,-0.1846,-0.1847,0,-0.1203,-0.1275,-0.1338,-0.1447,-0.148,-0.1524,-0.1623,-0.1655,-0.1734,-0.1761,-0.1781,-0.1836,-0.1804,-0.1809,-0.1786,-0.1735,-0.1675,-0.1624,-0.1775,-0.1761,-0.1542,-0.1544,-0.1457,-0.1451,-0.1447,-0.1443,-0.144,0,-0.1177,-0.1205,-0.1325,-0.1362,-0.1416,-0.149,-0.1529,-0.1626,-0.1653,-0.1721,-0.1712,-0.1718,-0.1732,-0.1577,-0.1616,-0.1549,-0.1538,-0.15,-0.1544,-0.1517,-0.1501,-0.151,-0.1518,-0.1433,-0.1432,-0.1431,-0.143,0,-0.1116,-0.1171,-0.1223,-0.1296,-0.1352,-0.1399,-0.1464,-0.1465,-0.1554,-0.1638,-0.1587,-0.1555,-0.1505,-0.1478,-0.1424,-0.1392,-0.1526,-0.1454,-0.1464,-0.1506,-0.1488,-0.1479,-0.1491,-0.1415,-0.1417,-0.1418,-0.1419,0,-0.1065,-0.1085,-0.1158,-0.121,-0.1274,-0.128,-0.133,-0.1343,-0.1371,-0.1451,-0.1425,-0.143,-0.1478,-0.1393,-0.1351,-0.1295,-0.1289,-0.1264,-0.1284,-0.1301,-0.1281,-0.1239,-0.1048,0,0,0,0,0,-0.1005,-0.1017,-0.1063,-0.1111,-0.1169,-0.1197,-0.127,-0.1319,-0.1397,-0.1318,-0.1367,-0.1313,-0.1243,-0.1258,-0.1165,-0.1285,-0.1298,-0.1175,-0.1282,-0.1331,-0.1348,-0.134,0,0,0,0,0,0,-0.0962,-0.1003,-0.1025,-0.1007,-0.1017,-0.1053,-0.1088,-0.1144,-0.1114,-0.12,-0.1164,-0.1234,-0.1183,-0.1261,-0.1136,-0.1138,-0.1179,-0.1194,-0.119,-0.1321,-0.1337,-0.1351,-0.1349,0,0,0,0,0]},{"header":{"parameterUnit":"m.s-1","parameterCategory":2,"la1":30.2991,"la2":30.254,"lo1":-89.0895,"lo2":-89.0444,"dy":0.0017,"dx":0.0017,"nx":28,"ny":28,"refTime":"2024-03-06T03:00:00:Z","depth":"4","parameterNumber":3,"parameterNumberName":"V-component_of_CURRENTS"},"data":[0,0,0,0,0,0,0,0,0,0,0,0,0,0,0,0,0,0,0,0,0,0,0,0,0,0,0,0,0,0,0,0,0,0,0,0,0,0,0,0,0,0,0,0,0,0,0,0,0,0,0,0,0,0,0,0,0,0,-0.0253,-0.0252,0,-0.0219,-0.0219,-0.0219,-0.0193,-0.0193,-0.0192,-0.0192,-0.011,-0.0107,-0.0105,0,0,0,0,0,0,0,0,0,0,0,0,0,-0.0239,-0.024,-0.0253,-0.0252,-0.0252,-0.022,-0.0219,-0.0218,-0.0193,-0.0193,-0.0192,-0.0192,-0.011,-0.0108,-0.0105,0,0,0,0,0,0,0,0,0,0,0,0,0,-0.0228,-0.024,-0.0253,-0.0236,-0.0234,-0.022,-0.0219,-0.0218,-0.0193,-0.0193,-0.0192,-0.0192,-0.0111,-0.0108,-0.0105,-0.009,0,0,-0.0095,-0.0094,0,0,0,0,0,0,0,0,-0.0229,-0.0229,-0.0239,-0.0237,-0.0235,-0.0211,-0.0184,-0.0173,-0.0193,-0.0207,-0.0192,-0.0192,-0.014,-0.0134,-0.0128,-0.0086,-0.0083,-0.0095,-0.0093,-0.0092,-0.0091,0,0,0,0,0,0,0,-0.023,-0.023,-0.0238,-0.0239,-0.0236,-0.0212,-0.021,-0.0182,-0.0173,-0.0206,-0.0204,-0.0203,-0.0138,-0.0131,-0.0125,-0.0082,-0.0095,-0.0093,-0.0091,-0.0089,-0.0014,-0.0014,0,0,0,0,0,0,-0.024,-0.0231,-0.0239,-0.0238,-0.0233,-0.0212,-0.0211,-0.0218,-0.0175,-0.0169,-0.0203,-0.0202,-0.0136,-0.0129,-0.0122,-0.0101,-0.0092,-0.0089,-0.0087,-0.0014,-0.0014,-0.0014,0,0,0,0,0,0,-0.024,-0.0241,-0.0241,-0.0233,-0.0232,-0.0213,-0.0221,-0.0218,-0.0215,-0.0173,-0.0166,-0.0205,-0.0136,-0.0127,-0.01,-0.0098,-0.0088,-0.0085,-0.0014,-0.0014,-0.0014,-0.006,0,0,0,0,0,0,-0.0239,-0.0241,-0.0252,-0.0235,-0.0233,-0.0237,-0.0222,-0.0217,-0.0215,-0.0213,-0.0173,-0.0164,-0.0135,-0.0105,-0.0097,-0.0094,-0.0082,-0.0015,-0.0014,-0.0014,-0.0059,-0.0061,-0.0064,0,0,0,0,0,-0.0239,-0.0254,-0.0253,-0.0253,-0.0247,-0.0238,-0.0235,-0.0219,-0.0215,-0.0216,-0.0188,-0.0166,-0.0097,-0.0102,-0.0093,-0.0089,-0.0015,-0.0014,-0.0014,-0.0058,-0.0061,-0.0064,0,0,0,0,0,0,-0.0255,-0.0253,-0.025,-0.0265,-0.0255,-0.0234,-0.0234,-0.0226,-0.0206,-0.0205,-0.0166,-0.0155,-0.0133,-0.0104,-0.0111,-0.0066,-0.0052,-0.0049,-0.0088,-0.009,-0.0093,-0.0101,-0.008,0,0,0,0,0,-0.0265,-0.0277,-0.0264,-0.0278,-0.0273,-0.0256,-0.0252,-0.0244,-0.0224,-0.0216,-0.0185,-0.0152,-0.0123,-0.0103,-0.0075,-0.0049,-0.0016,-0.0039,-0.0042,-0.0044,-0.0044,0.0006,0.0008,-0.0013,-0.0013,-0.0013,0,0,-0.0276,-0.0276,-0.0284,-0.0282,-0.0273,-0.0271,-0.0253,-0.0252,-0.0249,-0.0209,-0.0193,-0.0164,-0.0121,-0.0094,-0.008,-0.0069,-0.0021,-0.0044,-0.0046,-0.0045,0.0006,0.0009,0.001,-0.0013,-0.0013,-0.0013,0,0,-0.0299,-0.0303,-0.0316,-0.031,-0.0302,-0.029,-0.0293,-0.0274,-0.0263,-0.0247,-0.0216,-0.0185,-0.0144,-0.0107,-0.0084,-0.0082,-0.0042,-0.0075,-0.0087,-0.0039,-0.0036,-0.0034,0.0008,0.0014,-0.0069,-0.0069,-0.007,0,-0.0311,-0.033,-0.0317,-0.0323,-0.0322,-0.0301,-0.0309,-0.0293,-0.0269,-0.0257,-0.0249,-0.0182,-0.0147,-0.0106,-0.0105,-0.0087,-0.0057,-0.0081,-0.0042,-0.0039,-0.0036,0.0006,0.0014,-0.0072,-0.0071,-0.0071,-0.0071,0,-0.0338,-0.0352,-0.0358,-0.036,-0.0354,-0.0361,-0.0337,-0.0328,-0.0314,-0.0293,-0.0259,-0.0209,-0.0167,-0.015,-0.0127,-0.0087,-0.0072,-0.0058,-0.0038,-0.0037,0.0008,0.0017,-0.0075,-0.0074,-0.0073,-0.0073,0,0,-0.0367,-0.0377,-0.038,-0.039,-0.0378,-0.0378,-0.0369,-0.0351,-0.0345,-0.031,-0.0291,-0.0236,-0.0208,-0.018,-0.0141,-0.0095,-0.0048,-0.0072,-0.0068,-0.0035,0.0054,0.004,0.0048,-0.003,-0.0028,-0.0027,0.0076,0,-0.0393,-0.0422,-0.0414,-0.0436,-0.0446,-0.0422,-0.0414,-0.0393,-0.0367,-0.0339,-0.0281,-0.025,-0.0218,-0.0199,-0.0149,-0.0077,-0.0027,-0.0078,0.0054,0.0058,0.0041,0.0057,-0.0023,0.0082,0.0084,0.0086,0.0087,0,-0.0419,-0.0438,-0.047,-0.0478,-0.0479,-0.0486,-0.0472,-0.0462,-0.0412,-0.0387,-0.0339,-0.0294,-0.0224,-0.02,-0.007,-0.0106,-0.003,0.0029,0.0035,0.0043,0.006,0.0085,0.0103,0.0102,0.0101,0.01,0.0099,0,-0.0451,-0.0474,-0.0506,-0.0511,-0.0514,-0.0522,-0.0519,-0.0482,-0.0469,-0.0418,-0.0398,-0.0312,-0.0264,-0.0167,-0.0048,-0.0057,0.0097,0.0103,0.0166,0.0166,0.0168,0.0165,0.0203,0.0202,0.0202,0.0202,0.0202,0,-0.048,-0.0505,-0.053,-0.055,-0.0582,-0.0564,-0.058,-0.0558,-0.0519,-0.0495,-0.043,-0.0381,-0.0253,-0.0152,-0.005,0.0083,0.0101,0.0168,0.0194,0.0146,0.0139,0.0175,0.017,0.0206,0.0205,0.0204,0.0204,0,-0.0505,-0.0523,-0.0567,-0.0593,-0.0603,-0.0627,-0.063,-0.0629,-0.0589,-0.0554,-0.0539,-0.0422,-0.0288,-0.0158,0.0017,0.0081,0.0207,0.0254,0.0193,0.0212,0.0244,0.0236,0.0327,0.0327,0.0328,0.0328,0.0328,0,-0.0519,-0.0547,-0.0608,-0.0641,-0.0659,-0.0689,-0.0702,-0.0672,-0.0655,-0.0569,-0.0543,-0.0415,-0.0325,-0.0085,0.004,0.0225,0.0251,0.0302,0.0272,0.0242,0.0258,0.0249,0.0241,0.0329,0.0329,0.0329,0.0329,0,-0.0546,-0.0576,-0.0614,-0.0688,-0.0725,-0.0752,-0.076,-0.0745,-0.0689,-0.0659,-0.0521,-0.0396,-0.0239,-0.0068,0.0074,0.0206,0.0253,0.0306,0.0306,0.0278,0.0245,0.0259,0.025,0.033,0.033,0.033,0.033,0,-0.0565,-0.0604,-0.0665,-0.0721,-0.0773,-0.079,-0.0791,-0.074,-0.0708,-0.0594,-0.0543,-0.0373,-0.0264,-0.0076,0.0057,0.0176,0.0201,0.0222,0.0226,0.0227,0.0155,0.0097,0.0164,0,0,0,0,0,-0.0577,-0.0622,-0.0687,-0.075,-0.08,-0.0821,-0.0814,-0.0796,-0.0735,-0.0636,-0.0581,-0.0427,-0.0208,-0.0107,0.0013,0.0037,0.0195,0.0176,0.0213,0.0336,0.0335,0.0266,0,0,0,0,0,0,-0.0585,-0.0652,-0.069,-0.0757,-0.0797,-0.0837,-0.0828,-0.0787,-0.0713,-0.0634,-0.0506,-0.0425,-0.0207,-0.0276,0.0008,0.0043,0.0076,0.0285,0.0286,0.0337,0.0336,0.0335,0.0263,0,0,0,0,0]}]]